Regional Weather Roundup
Issued by NWS

Home | Current Version | Previous Version | Graphics & Text | Print | Product List | Glossary On
Versions: 1 2 3 4 5 6 7 8 9 10 11 12 13 14 15 16 17 18 19 20 21 22 23 24 25 26 27 28 29 30 31 32 33 34 35 36 37 38 39 40 41 42 43 44 45 46 47 48 49 50
000
ASUS43 KMPX 210701
RWRMN
WEATHER ROUNDUP FOR MINNESOTA
NATIONAL WEATHER SERVICE TWIN CITIES/CHANHASSEN MN
200 AM CDT SAT OCT 21 2017


NOTE: "FAIR" INDICATES FEW OR NO CLOUDS BELOW 12,000 FEET WITH NO
SIGNIFICANT WEATHER AND/OR OBSTRUCTIONS TO VISIBILITY. N/A MEANS
CURRENT SKY AND/OR WEATHER CONDITIONS ARE NOT AVAILABLE.

MNZ060>063-068>070-210800-
   Twin Cities Metro

CITY           SKY/WX    TMP DP  RH WIND       PRES   REMARKS
TWIN CITIES    MOCLDY    64  54  69 S14G22    29.73S
ST PAUL        MOCLDY    63  53  70 S15G23    29.74S
CRYSTAL        CLOUDY    64  51  62 S14       29.70S
BLAINE         CLOUDY    64  54  68 SE16      29.71F
LAKEVILLE      CLOUDY    61  52  72 S9        29.73S
EDEN PRAIRIE   CLOUDY    65  54  67 S13       29.70S
SOUTH ST PAUL  MOCLDY    64  51  63 S9G18     29.74F
LAKE ELMO      FAIR      63  52  67 S17       29.75F
$$
MNZ001>005-007-008-013>017-022>024-027-028-210800-
   Northwest Minnesota

CITY           SKY/WX    TMP DP  RH WIND       PRES   REMARKS
BEMIDJI        MOCLDY    65  53  66 S20G26    29.53F
HALLOCK        CLOUDY    68  55  64 S23G30    29.33F
ROSEAU         CLEAR     66  57  72 S16       29.42F
WARROAD        CLEAR     64  55  72 S15       29.44F
CROOKSTON      CLOUDY    70  57  64 S26G32    29.39F
FOSSTON        PTCLDY    64  54  68 S16G23    29.47S
DETROIT LAKES  PTCLDY    64  55  72 S17G25    29.50S
MOORHEAD       CLOUDY    66  57  72 S23G35    29.42S
PARK RAPIDS    MOCLDY    64  55  72 S17G32    29.54F
MAHNOMEN       FAIR      65  56  71 S14G24    29.46F
$$
MNZ006-009>011-018-025>026-210800-
   North Central Minnesota

CITY           SKY/WX    TMP DP  RH WIND       PRES   REMARKS
BAUDETTE       MOCLDY    66  51  58 S13G22    29.49F
FLAG ISLAND    CLOUDY    57  50  77 S18       29.44F
INTL FALLS     CLOUDY    66  46  48 S9G22     29.56F
WASKISH        PTCLDY    66  52  59 S13G20    29.52S
BIG FORK       PTCLDY    63  48  59 S13G18    29.60S
LONGVILLE      CLOUDY    64  52  63 S15       29.59F
GRAND RAPIDS   MOCLDY    62  48  60 S16G22    29.64F
CRANE LAKE     MOCLDY    63  45  51 S9        29.64S
ORR            CLOUDY    63  43  48 S14       29.61S
COOK           MOCLDY    63  46  55 S13G23    29.66S
WALKER         CLOUDY    65  53  65 SE12G21   29.56S
$$
MNZ012-019>021-037-210800-
   Northeast Minnesota

CITY           SKY/WX    TMP DP  RH WIND       PRES   REMARKS
DULUTH         CLOUDY    61  48  62 S15       29.72S
ELY            PTCLDY    61  43  51 S7        29.69S
HIBBING        CLOUDY    61  46  57 S10       29.67S
EVELETH        PTCLDY    63  39  41 S13       29.69F
DULUTH HARBOR  CLOUDY    64  50  59 S9        29.71F
TWO HARBORS    CLOUDY    57  48  72 CALM      29.71F
SILVER BAY     MOCLDY    48  46  93 CALM      29.72S
GRAND MARAIS     N/A     52  47  83 NE3       29.76S
G MARAIS ARPRT CLOUDY    57  41  54 S5        29.79R
$$
MNZ029>031-032-039>041-046>048-054>057-064-210800-
   West Central Minnesota

CITY           SKY/WX    TMP DP  RH WIND       PRES   REMARKS
FERGUS FALLS   MOCLDY    64  55  72 S23G30    29.48S
WHEATON        CLOUDY    66  55  68 SE16G23   29.47S
MORRIS         CLOUDY    64  57  77 S21G26    29.50S
ALEXANDRIA     CLOUDY    64  55  72 S21G35    29.56F
ELBOW LAKE     FAIR      64  57  78 SE24G31   29.50S
WADENA         PTCLDY    63  54  72 S20G29    29.54S
GLENWOOD       CLOUDY    63  55  77 S21G30    29.57S
APPLETON       MOCLDY    66  55  68 S13G18    29.51S
BENSON         CLOUDY    64  55  72 S14       29.56S
ORTONVILLE     PTCLDY    66  57  72 N16G23    29.49S
MADISON        CLOUDY    70  57  64 S20G26    29.50S
WILLMAR        FAIR      64  57  77 SE14G21   29.60F
$$
MNZ033>034-036-042>043-049>051-058-059-210800-
   Central Minnesota

CITY           SKY/WX    TMP DP  RH WIND       PRES   REMARKS
ST CLOUD       CLOUDY    64  55  72 S18G26    29.65S
SAUK CENTRE    FAIR      61  54  77 SE21G28   29.58F
PAYNESVILLE    CLOUDY    64  56  76 SE14G25   29.62F
AITKIN         CLOUDY    61  48  63 S14       29.63S
PINE RIVER     CLOUDY    61  50  67 S14G20    29.63F
BRAINERD       CLOUDY    63  52  67 S15G24    29.62F
STAPLES        CLOUDY    64  54  68 S18G26    29.58S
LONG PRAIRIE   FAIR      61  54  77 SE20G30   29.59F
LITTLE FALLS   CLOUDY    63  46  55 S15G23    29.62S
LITCHFIELD     MOCLDY    64  57  77 SE8       29.64F
BUFFALO        CLOUDY    65  54  67 SE12G23   29.69S
MAPLE LAKE     CLOUDY    65  56  74 S12G17    29.67F
HUTCHINSON     CLOUDY    65  57  74 S12G17    29.66F
$$
MNZ037-044-045-052-053-210800-
   East Central Minnesota

CITY           SKY/WX    TMP DP  RH WIND       PRES   REMARKS
PRINCETON      LGT RAIN  64  57  77 SE12G21   29.68S
MORA           CLOUDY    61  50  67 S9G16     29.71S
CAMBRIDGE      CLOUDY    66  52  59 SE9       29.70S
RUSH CITY      CLOUDY    63  51  66 S12G18    29.72S
MOOSE LAKE     MOCLDY    63  50  63 S8        29.68S
HINCKLEY       FAIR      63  52  67 S12       29.71S
CLOQUET        CLOUDY    64  46  52 S10G16    29.71S
MCGREGOR       PTCLDY    63  50  63 S13       29.67S
$$
MNZ071>073-080-081-089-090-097-098-210800-
   Southwest Minnesota

CITY           SKY/WX    TMP DP  RH WIND       PRES   REMARKS
MONTEVIDEO     CLOUDY    66  57  72 S13G23    29.54F
GRANITE FALLS  MOCLDY    67  58  72 SE20G25   29.57F
CANBY          CLOUDY    68  57  68 S18G28    29.51F
MARSHALL       CLOUDY    66  57  72 S25G33    29.54S
REDWOOD FALLS  CLOUDY    65  55  70 S21       29.59F
OLIVIA         CLOUDY    63  54  72 S17       29.60S
PIPESTONE      CLOUDY    63  55  77 S20G29    29.57R
WORTHINGTON    PTCLDY    63  56  78 S16G26    29.62F
JACKSON        PTCLDY    61  54  77 S16G22    29.67F
TRACY          CLOUDY    65  58  79 S20G28    29.57F
SLAYTON        PTCLDY    62  56  82 S15G25    29.59F
$$
MNZ065>067-074>077-082>085-091>093-210800-
   South Central Minnesota

CITY           SKY/WX    TMP DP  RH WIND       PRES   REMARKS
MANKATO        MOCLDY    63  53  70 S17G25    29.70F
NEW ULM        CLOUDY    64  54  68 S18G26    29.65S
ST JAMES       PTCLDY    63  55  77 SE21G31   29.67F
FAIRMONT       CLOUDY    62  55  77 S22G28    29.69F
GLENCOE        DRIZZLE   65  56  72 S10G18    29.67S
FARIBAULT      CLEAR     63  52  67 SE13G24   29.75S
OWATONNA       PTCLDY    61  52  72 SE16G24   29.75F
WASECA         CLOUDY    63  52  67 S17G25    29.75F
$$
MNZ078>079-086>088-094>096-210800-
   Southeast Minnesota

CITY           SKY/WX    TMP DP  RH WIND       PRES   REMARKS
ROCHESTER      CLOUDY    61  50  67 S20G28    29.81S
RED WING       CLOUDY    66  46  48 S7G16     29.78S
STANTON        CLOUDY    64  51  64 S14G22    29.74S
DODGE CENTER   CLOUDY    61  48  63 S21       29.79S
WINONA         CLOUDY    66  48  52 S5        29.83F
AUSTIN         CLOUDY    61  48  63 S12G20    29.80S
PRESTON        PTCLDY    60  48  64 S17       29.84S
$$
ABBREVIATIONS USED IN REMARKS
   TC - TEMPERATURES IN CELSIUS
  WCI - WIND CHILL INDEX
   HX - HEAT INDEX
  VSB - VISIBILITY
$$



USA.gov is the U.S. government's official web portal to all federal, state and local government web resources and services.